TimeMDT,TemperatureF,Dew PointF,Humidity,Sea Level PressureIn,VisibilityMPH,Wind Direction,Wind SpeedMPH,Gust SpeedMPH,PrecipitationIn,Events,Conditions,WindDirDegrees,DateUTC
12:04 AM,55.4,53.6,94,29.95,3.0,East,6.9,-,N/A,,Overcast,100,2013-05-27 06:04:00
12:12 AM,53.6,53.6,100,29.95,1.8,East,6.9,-,N/A,,Overcast,90,2013-05-27 06:12:00
12:30 AM,53.6,53.6,100,29.94,0.8,East,8.1,-,N/A,,Mist,80,2013-05-27 06:30:00
12:43 AM,53.6,53.6,100,29.94,0.2,ENE,6.9,-,N/A,Fog,Fog,60,2013-05-27 06:43:00
12:53 AM,54.0,53.1,97,29.79,0.2,NE,8.1,-,N/A,Fog,Fog,50,2013-05-27 06:53:00
1:07 AM,53.6,53.6,100,29.96,0.5,North,9.2,-,N/A,Fog,Fog,10,2013-05-27 07:07:00
1:19 AM,53.6,53.6,100,29.95,2.0,NNE,8.1,-,N/A,,Overcast,30,2013-05-27 07:19:00
1:43 AM,53.6,53.6,100,29.93,10.0,NE,8.1,-,N/A,,Overcast,50,2013-05-27 07:43:00
1:53 AM,53.1,52.0,96,29.77,10.0,NNE,6.9,-,N/A,,Overcast,30,2013-05-27 07:53:00
2:14 AM,53.6,51.8,94,29.92,10.0,ENE,4.6,-,N/A,,Scattered Clouds,70,2013-05-27 08:14:00
2:23 AM,53.6,51.8,94,29.92,10.0,ENE,5.8,-,N/A,,Mostly Cloudy,70,2013-05-27 08:23:00
2:49 AM,51.8,51.8,100,29.90,10.0,ENE,8.1,-,N/A,,Mostly Cloudy,60,2013-05-27 08:49:00
2:53 AM,52.0,51.1,97,29.73,10.0,NE,6.9,-,N/A,,Mostly Cloudy,50,2013-05-27 08:53:00
3:04 AM,53.6,51.8,94,29.90,9.0,ENE,6.9,-,N/A,,Mostly Cloudy,60,2013-05-27 09:04:00
3:14 AM,53.6,51.8,94,29.90,1.8,ENE,10.4,-,N/A,,Overcast,60,2013-05-27 09:14:00
3:24 AM,53.6,51.8,94,29.90,0.5,ENE,8.1,-,N/A,Fog,Fog,60,2013-05-27 09:24:00
3:34 AM,53.6,51.8,94,29.90,0.2,ENE,8.1,-,N/A,Fog,Fog,60,2013-05-27 09:34:00
3:45 AM,53.6,51.8,94,29.89,0.5,NE,9.2,-,N/A,Fog,Fog,50,2013-05-27 09:45:00
3:53 AM,53.1,52.0,96,29.73,0.5,NE,8.1,-,N/A,Fog,Fog,40,2013-05-27 09:53:00
4:53 AM,53.1,52.0,96,29.74,0.2,Calm,Calm,-,N/A,Fog,Fog,0,2013-05-27 10:53:00
5:53 AM,54.0,53.1,97,29.73,0.2,East,5.8,-,N/A,Fog,Fog,80,2013-05-27 11:53:00
6:53 AM,54.0,53.1,97,29.75,0.2,East,3.5,-,N/A,Fog,Fog,90,2013-05-27 12:53:00
7:34 AM,53.6,53.6,100,29.90,1.0,Calm,Calm,-,N/A,,Mist,0,2013-05-27 13:34:00
7:41 AM,55.4,53.6,94,29.90,3.0,Calm,Calm,-,N/A,,Overcast,0,2013-05-27 13:41:00
7:53 AM,55.0,54.0,96,29.76,8.0,Calm,Calm,-,N/A,,Overcast,0,2013-05-27 13:53:00
8:40 AM,55.4,53.6,94,29.90,10.0,Calm,Calm,-,N/A,,Overcast,0,2013-05-27 14:40:00
8:53 AM,57.0,54.0,89,29.77,4.0,Calm,Calm,-,N/A,,Overcast,0,2013-05-27 14:53:00
9:10 AM,57.2,53.6,88,29.90,5.0,Calm,Calm,-,N/A,,Overcast,0,2013-05-27 15:10:00
9:24 AM,57.2,55.4,94,29.89,1.5,East,4.6,-,N/A,,Overcast,90,2013-05-27 15:24:00
9:42 AM,57.2,55.4,94,29.89,3.0,ESE,8.1,-,N/A,,Overcast,110,2013-05-27 15:42:00
9:49 AM,55.4,55.4,100,29.89,1.5,ESE,9.2,-,N/A,,Overcast,120,2013-05-27 15:49:00
9:53 AM,55.9,55.0,97,29.75,0.8,ESE,9.2,-,N/A,,Overcast,110,2013-05-27 15:53:00
10:06 AM,55.4,53.6,94,29.87,2.0,SE,9.2,19.6,0.01,Rain,Light Rain,130,2013-05-27 16:06:00
10:13 AM,55.4,55.4,100,29.87,5.0,ESE,5.8,17.3,0.01,Rain,Light Rain,110,2013-05-27 16:13:00
10:53 AM,55.9,55.0,97,29.73,1.8,Variable,4.6,-,0.01,,Overcast,0,2013-05-27 16:53:00
11:53 AM,55.0,54.0,96,29.73,1.2,ESE,6.9,-,0.01,Rain,Light Rain,120,2013-05-27 17:53:00
11:59 AM,55.4,53.6,94,29.86,3.0,ESE,5.8,-,0.00,,Overcast,110,2013-05-27 17:59:00
12:19 PM,55.4,53.6,94,29.86,1.8,SSE,5.8,-,0.00,,Overcast,150,2013-05-27 18:19:00
12:45 PM,57.2,55.4,94,29.85,3.0,Calm,Calm,-,0.01,,Overcast,0,2013-05-27 18:45:00
12:53 PM,57.9,55.0,90,29.71,5.0,Variable,4.6,-,0.01,,Overcast,0,2013-05-27 18:53:00
1:06 PM,57.2,55.4,94,29.84,10.0,South,6.9,-,N/A,,Overcast,180,2013-05-27 19:06:00
1:31 PM,60.8,55.4,82,29.83,10.0,Variable,4.6,-,N/A,,Overcast,0,2013-05-27 19:31:00
1:53 PM,62.1,54.0,75,29.68,10.0,West,6.9,-,N/A,,Mostly Cloudy,260,2013-05-27 19:53:00
2:00 PM,64.4,55.4,73,29.83,10.0,SW,6.9,-,N/A,,Mostly Cloudy,220,2013-05-27 20:00:00
2:11 PM,64.4,53.6,68,29.82,10.0,West,5.8,-,N/A,,Scattered Clouds,260,2013-05-27 20:11:00
2:35 PM,64.4,51.8,64,29.81,10.0,SW,8.1,-,N/A,,Mostly Cloudy,230,2013-05-27 20:35:00
2:50 PM,66.2,51.8,60,29.81,10.0,Variable,4.6,-,N/A,,Scattered Clouds,0,2013-05-27 20:50:00
2:53 PM,66.9,51.1,57,29.64,10.0,SW,10.4,-,N/A,,Scattered Clouds,230,2013-05-27 20:53:00
3:53 PM,66.9,50.0,54,29.62,10.0,SW,8.1,16.1,N/A,,Partly Cloudy,230,2013-05-27 21:53:00
4:53 PM,69.1,48.0,47,29.59,10.0,West,10.4,-,N/A,,Partly Cloudy,280,2013-05-27 22:53:00
5:53 PM,60.1,43.0,53,29.61,10.0,NW,6.9,21.9,N/A,,Overcast,310,2013-05-27 23:53:00
6:08 PM,51.8,44.6,76,29.76,2.5,NNE,10.4,-,0.12,Rain,Heavy Rain,20,2013-05-28 00:08:00
6:21 PM,51.8,46.4,82,29.77,5.0,East,6.9,-,0.24,Rain,Rain,80,2013-05-28 00:21:00
6:53 PM,51.1,48.0,89,29.68,10.0,Calm,Calm,-,0.28,,Overcast,0,2013-05-28 00:53:00
7:53 PM,51.1,46.0,83,29.69,10.0,Variable,3.5,-,N/A,,Clear,0,2013-05-28 01:53:00
8:53 PM,46.9,45.0,93,29.70,10.0,South,4.6,-,N/A,,Clear,180,2013-05-28 02:53:00
9:53 PM,46.9,43.0,86,29.70,10.0,West,4.6,-,N/A,,Clear,280,2013-05-28 03:53:00
10:53 PM,46.9,43.0,86,29.72,10.0,NNE,3.5,-,N/A,,Clear,20,2013-05-28 04:53:00
11:53 PM,45.0,41.0,86,29.75,10.0,Calm,Calm,-,N/A,,Partly Cloudy,0,2013-05-28 05:53:00